| time (UTC) | temp C | wind direction | speed KPH | gust KPH | rain 1hr cm | rain 24hr cm | rain mn cm | humidity % | barometer mb |
| 20260505100353 | 23 | 0.0 | 0.0 | 0.00 | 0.00 | 0.00 | 58 | 1025.8 | |
| 20260505094853 | 23 | 0.0 | 0.0 | 0.00 | 0.00 | 0.00 | 57 | 1025.6 | |
| 20260505093353 | 23 | 0.0 | 0.0 | 0.00 | 0.00 | 0.00 | 57 | 1025.3 | |
| 20260505091853 | 23 | 0.0 | 0.0 | 0.00 | 0.00 | 0.00 | 58 | 1025.3 | |
| 20260505090353 | 23 | 0.0 | 0.0 | 0.00 | 0.00 | 0.00 | 55 | 1025.0 | |
| 20260505084853 | 24 | 0.0 | 0.0 | 0.00 | 0.00 | 0.00 | 54 | 1024.6 | |
| 20260505083353 | 23 | 0.0 | 0.0 | 0.00 | 0.00 | 0.00 | 55 | 1024.4 | |
| 20260505081853 | 23 | 0.0 | 0.0 | 0.00 | 0.00 | 0.00 | 55 | 1024.4 | |
| 20260505080352 | 23 | 0.0 | 0.0 | 0.00 | 0.00 | 0.00 | 55 | 1024.1 | |
| 20260505074852 | 23 | 0.0 | 0.0 | 0.00 | 0.00 | 0.00 | 55 | 1024.1 | |
| 20260505073352 | 23 | 0.0 | 0.0 | 0.00 | 0.00 | 0.00 | 55 | 1024.1 | |
| 20260505071852 | 24 | 0.0 | 0.0 | 0.00 | 0.00 | 0.00 | 53 | 1024.2 | |
| 20260505070352 | 25 | 0.0 | 0.0 | 0.00 | 0.00 | 0.00 | 53 | 1024.2 | |
| 20260505064852 | 24 | 0.0 | 0.0 | 0.00 | 0.00 | 0.00 | 54 | 1024.3 | |
| 20260505063352 | 23 | 0.0 | 0.0 | 0.00 | 0.00 | 0.00 | 55 | 1024.4 | |
| 20260505061852 | 23 | 0.0 | 0.0 | 0.00 | 0.00 | 0.00 | 56 | 1024.3 | |
| 20260505060352 | 23 | 0.0 | 0.0 | 0.00 | 0.00 | 0.00 | 55 | 1024.2 | |
| 20260505054852 | 23 | 0.0 | 0.0 | 0.00 | 0.00 | 0.00 | 55 | 1024.2 | |
| 20260505053352 | 24 | 0.0 | 0.0 | 0.00 | 0.00 | 0.00 | 54 | 1024.3 | |
| 20260505051852 | 25 | 0.0 | 0.0 | 0.00 | 0.00 | 0.00 | 53 | 1024.3 | |
| 20260505050352 | 25 | 0.0 | 0.0 | 0.00 | 0.00 | 0.00 | 52 | 1024.3 | |
| 20260505040352 | 25 | 0.0 | 0.0 | 0.00 | 0.00 | 0.00 | 51 | 1024.4 | |
| 20260505034852 | 25 | 0.0 | 0.0 | 0.00 | 0.00 | 0.00 | 52 | 1024.5 | |
| 20260505033352 | 25 | 0.0 | 0.0 | 0.00 | 0.00 | 0.00 | 51 | 1024.3 | |
| 20260505031852 | 25 | 0.0 | 0.0 | 0.00 | 0.00 | 0.00 | 52 | 1024.4 | |
| 20260505030352 | 25 | 0.0 | 0.0 | 0.00 | 0.00 | 0.00 | 52 | 1024.4 | |
| 20260505024852 | 25 | 0.0 | 0.0 | 0.00 | 0.00 | 0.00 | 53 | 1024.4 | |
| 20260505023352 | 25 | 0.0 | 0.0 | 0.00 | 0.00 | 0.00 | 52 | 1024.3 | |
| 20260505021852 | 25 | 0.0 | 0.0 | 0.00 | 0.00 | 0.00 | 52 | 1024.3 | |
| 20260505020352 | 25 | 0.0 | 0.0 | 0.00 | 0.00 | 0.00 | 51 | 1024.2 | |
| 20260505014852 | 25 | 0.0 | 0.0 | 0.00 | 0.00 | 0.00 | 52 | 1024.4 | |
| 20260505013352 | 25 | 0.0 | 0.0 | 0.00 | 0.00 | 0.00 | 52 | 1024.2 | |
| 20260505011852 | 25 | 0.0 | 0.0 | 0.00 | 0.00 | 0.00 | 52 | 1024.1 | |
| 20260505010352 | 26 | 0.0 | 0.0 | 0.00 | 0.00 | 0.00 | 50 | 1024.0 | |
| 20260505004852 | 26 | 0.0 | 0.0 | 0.00 | 0.00 | 0.00 | 50 | 1023.9 | |
| 20260505003352 | 26 | 0.0 | 0.0 | 0.00 | 0.00 | 0.00 | 50 | 1023.7 | |
| 20260505001852 | 26 | 0.0 | 0.0 | 0.00 | 0.00 | 0.00 | 50 | 1023.6 | |
| 20260505000352 | 26 | 0.0 | 0.0 | 0.00 | 0.00 | 0.00 | 48 | 1023.4 | |
| 20260504234852 | 26 | 0.0 | 0.0 | 0.00 | 0.00 | 0.00 | 48 | 1023.3 | |
| 20260504233351 | 27 | 0.0 | 0.0 | 0.00 | 0.00 | 0.00 | 46 | 1023.0 | |
| 20260504231851 | 27 | 0.0 | 0.0 | 0.00 | 0.00 | 0.00 | 44 | 1022.7 | |
| 20260504230351 | 27 | 0.0 | 0.0 | 0.00 | 0.00 | 0.00 | 45 | 1022.5 | |
| 20260504224851 | 28 | 0.0 | 0.0 | 0.00 | 0.00 | 0.00 | 44 | 1022.2 | |
| 20260504223351 | 28 | 0.0 | 0.0 | 0.00 | 0.00 | 0.00 | 44 | 1022.1 | |
| 20260504221851 | 28 | 0.0 | 0.0 | 0.00 | 0.00 | 0.00 | 43 | 1021.9 | |
| 20260504220351 | 28 | 0.0 | 0.0 | 0.00 | 0.00 | 0.00 | 43 | 1021.7 | |
| 20260504214851 | 28 | 0.0 | 0.0 | 0.00 | 0.00 | 0.00 | 42 | 1021.3 | |
| 20260504213351 | 28 | 0.0 | 0.0 | 0.00 | 0.00 | 0.00 | 42 | 1021.1 | |
| 20260504211851 | 29 | 0.0 | 0.0 | 0.00 | 0.00 | 0.00 | 41 | 1021.0 | |
| 20260504210351 | 29 | 0.0 | 0.0 | 0.00 | 0.00 | 0.00 | 41 | 1021.0 | |
| 20260504204851 | 30 | 0.0 | 0.0 | 0.00 | 0.00 | 0.00 | 40 | 1020.7 | |
| 20260504203351 | 29 | 0.0 | 0.0 | 0.00 | 0.00 | 0.00 | 39 | 1020.6 | |
| 20260504201851 | 30 | 0.0 | 0.0 | 0.00 | 0.00 | 0.00 | 39 | 1020.7 | |
| 20260504200351 | 30 | 0.0 | 0.0 | 0.00 | 0.00 | 0.00 | 38 | 1020.4 | |
| 20260504194851 | 30 | 0.0 | 0.0 | 0.00 | 0.00 | 0.00 | 37 | 1020.5 | |
| 20260504193351 | 31 | 0.0 | 0.0 | 0.00 | 0.00 | 0.00 | 35 | 1020.2 | |
| 20260504191851 | 36 | 0.0 | 0.0 | 0.00 | 0.00 | 0.00 | 27 | 1019.0 | |
| 20260504190351 | 49 | 0.0 | 0.0 | 0.00 | 0.00 | 0.00 | 14 | 1015.9 | |
| 20260504184851 | 47 | 0.0 | 0.0 | 0.00 | 0.00 | 0.00 | 16 | 1016.5 | |
| 20260504183351 | 31 | 0.0 | 0.0 | 0.00 | 0.00 | 0.00 | 37 | 1020.0 | |
| 20260504181851 | 30 | 0.0 | 0.0 | 0.00 | 0.00 | 0.00 | 40 | 1020.5 | |
| 20260504180351 | 29 | 0.0 | 0.0 | 0.00 | 0.00 | 0.00 | 42 | 1020.7 | |
| 20260504174851 | 29 | 0.0 | 0.0 | 0.00 | 0.00 | 0.00 | 41 | 1020.9 | |
| 20260504173351 | 30 | 0.0 | 0.0 | 0.00 | 0.00 | 0.00 | 40 | 1020.8 | |
| 20260504171851 | 30 | 0.0 | 0.0 | 0.00 | 0.00 | 0.00 | 39 | 1020.8 | |
| 20260504170351 | 30 | 0.0 | 0.0 | 0.00 | 0.00 | 0.00 | 41 | 1021.2 | |
| 20260504160351 | 28 | 0.0 | 0.0 | 0.00 | 0.00 | 0.00 | 41 | 1022.1 | |
| 20260504150351 | 28 | 0.0 | 0.0 | 0.00 | 0.00 | 0.00 | 44 | 1023.0 | |
| 20260504140350 | 27 | 0.0 | 0.0 | 0.00 | 0.00 | 0.00 | 44 | 1024.1 | |
| 20260504130350 | 26 | 0.0 | 0.0 | 0.00 | 0.00 | 0.00 | 46 | 1024.9 | |
| 20260504110350 | 22 | 0.0 | 0.0 | 0.00 | 0.00 | 0.00 | 56 | 1025.5 |